カタログに戻る

SL-8 R/B

運用中PO
NORAD 22889·ROCKET BODY·🇷🇺 Russia

打ち上げ Nov 2, 1993 から Plesetsk Cosmodrome

Loading…

次のパス (今後24時間)

TLE

最新Source: Space-Track

元期: Sep 14, 2026, 21:12 UTC

1 22889U 93070B   26257.88350337  .00000074  00000-0  57342-4 0  9993
2 22889  82.9481 324.6899 0050952 121.0175 239.6001 13.78295748652437

AllMySatでSL-8 R/Bをリアルタイム追跡

Download on the App Store